TIME,DELAY(SENSOR),PRES,OXYGEN,RAWTEMP,T(OPTODE),TCPHASE,FLUOR,BETA(BETA700),BETA(BETA412),BETA(BETA440),CDOM,C(CSC),ED(ED412.20),ED(ED444.00),ED(ED489.60),ED(ED554.30),LU(LU412.10),LU(LU443.90),LU(LU489.70),LU(LU554.70),COMP,TILTX,TILTY,CHECK
1369627477,5806,863.8599853515625000,32.1154403686523440,561.2299804687500000,4.4477691650390625,56.7603187561035160,55,100,100,78,81,15637,0,0,0,0,2147117760,2147772342,2147571181,2147569024,445,2,13,29558
1369631073,5813,922.0599975585938000,36.7340583801269500,568.7061767578125000,4.2157568931579590,56.0955009460449200,55,97,100,77,81,15636,0,0,0,0,2147120091,2147769883,2147575360,2147569325,3328,2,13,64761
1369634673,5812,937.4299926757812000,36.8054809570312500,569.5317993164062000,4.1901087760925290,56.0980682373046900,55,99,100,78,82,15635,0,0,0,0,2147121097,2147770230,2147574016,2147569700,232,3,13,35341
1369638273,5810,970.7999877929688000,38.9696388244628900,571.1215209960938000,4.1407051086425780,55.7836494445800800,54,98,99,79,81,15619,0,0,0,0,2147121380,2147772169,2147575012,2147566720,3418,3,13,57896
1369641873,5812,973.1699829101562000,37.0219917297363300,570.7078247070312000,4.1535639762878420,56.0732002258300800,55,98,99,77,80,15634,0,0,0,0,2147118902,2147768685,2147569344,2147566976,371,2,13,37227
1369645473,5809,979.1300048828125000,33.6241302490234400,570.7025146484375000,4.1537280082702640,56.6045989990234400,55,97,99,79,82,15634,0,0,0,0,2147118564,2147772708,2147572982,2147562752,3159,2,13,40046
1369649073,5810,976.5700073242188000,37.7429809570312500,571.2982177734375000,4.1352100372314450,55.9674491882324200,55,98,101,78,81,15632,0,0,0,0,2147121325,2147769005,2147571309,2147565705,3310,2,13,41601
1369652673,5811,979.8400268554688000,36.4559783935546900,570.9367065429688000,4.1464481353759770,56.1619911193847660,55,99,98,77,81,15633,0,0,0,0,2147122066,2147768301,2147572626,2147566290,111,2,13,9450
1369656273,5808,977.7700195312500000,35.0607795715332000,571.4915771484375000,4.1291999816894530,56.3853111267089840,54,97,100,77,80,15629,0,0,0,0,2147119862,2147769334,2147572525,2147565092,117,2,13,17083
1369659873,5808,982.6300048828125000,37.4505004882812500,571.1834716796875000,4.1387791633605960,56.0113410949707000,55,98,100,77,82,15632,0,0,0,0,2147117714,2147764571,2147571136,2147566738,3589,2,13,55506
1369663473,5808,978.9699707031250000,34.7178306579589840,572.2921142578125000,4.1043109893798830,56.4497795104980500,56,100,101,78,82,15632,0,0,0,0,2147120649,2147773339,2147573878,2147564918,122,2,13,10128
1369667073,5811,985.0700073242188000,37.0581703186035160,571.6702880859375000,4.1236419677734375,56.0802688598632800,54,98,101,77,81,15631,0,0,0,0,2147122934,2147773732,2147573403,2147568283,338,2,13,45227
1369670673,5811,987.5700073242188000,31.8804206848144530,571.4522094726562000,4.1304230690002440,56.8945503234863300,55,98,100,78,81,15629,0,0,0,0,2147122066,2147763437,2147575277,2147565421,89,2,13,11438
1369674273,5809,983.7399902343750000,38.8374710083007800,572.9417724609375000,4.0841059684753420,55.8188896179199200,55,97,100,78,82,15628,0,0,0,0,2147118884,2147771218,2147569426,2147567652,490,2,13,54868
1369677873,5810,982.9500122070312000,38.9280509948730500,572.6953125000000000,4.0917739868164060,55.8020286560058600,55,97,98,78,81,15624,0,0,0,0,2147121188,2147767643,2147572187,2147565723,3444,2,13,63074
1369681473,5811,984.1799926757812000,36.6306800842285160,572.7811279296875000,4.0891041755676270,56.1561393737793000,54,98,100,77,81,15630,0,0,0,0,2147123712,2147772187,2147565129,2147568219,516,2,13,46531
1369685073,5810,987.9099731445312000,37.8975906372070300,571.9329223632812000,4.1154799461364750,55.9519996643066400,54,97,99,78,81,15626,0,0,0,0,2147121545,2147768548,2147572132,2147566610,3544,2,13,23248
1369688673,5807,981.1699829101562000,33.4515190124511700,572.1090087890625000,4.1100029945373535,56.6440086364746100,55,97,100,78,82,15627,0,0,0,0,2147121216,2147768877,2147567762,2147564096,3205,2,13,60709
1369692273,5812,981.6099853515625000,37.1901397705078100,573.1265869140625000,4.0783600807189940,56.0764884948730500,55,102,100,78,81,15626,0,0,0,0,2147120091,2147767972,2147574208,2147566683,3145,2,13,1592
1369695873,5809,987.1599731445312000,38.9590988159179700,572.2802124023438000,4.1046810150146480,55.7951698303222660,55,97,99,78,81,15626,0,0,0,0,2147120841,2147773430,2147571346,2147564900,3546,2,13,44977
1369699473,5809,974.9799804687500000,38.8340682983398440,574.1837158203125000,4.0454769134521480,55.8310317993164060,54,98,99,78,81,15629,0,0,0,0,2147120630,2147772342,2147574601,2147568740,366,3,13,16340
1369703073,5810,984.5300292968750000,37.9543113708496100,573.4984741210938000,4.0667920112609860,55.9597892761230500,55,97,99,78,80,15626,0,0,0,0,2147119808,2147773339,2147574299,2147568950,754,2,13,35618
1369706673,5812,983.9600219726562000,39.1503410339355500,572.6826782226562000,4.0921649932861330,55.7737083435058600,55,98,99,78,82,15626,0,0,0,0,2147120758,2147773686,2147571136,2147566646,22,2,13,32452
1369710273,5809,991.1400146484375000,37.7068405151367200,572.1002197265625000,4.1102790832519530,55.9803390502929700,55,99,100,78,81,15626,0,0,0,0,2147120502,2147770486,2147574089,2147567323,3505,2,13,55078
1369713873,5808,989.9000244140625000,35.5572700500488300,572.1207885742188000,4.1096358299255370,56.3180999755859400,55,98,100,77,81,15623,0,0,0,0,2147120685,2147771492,2147568484,2147563154,84,2,13,25816
1369717473,5811,984.6599731445312000,37.9188690185546900,572.7741699218750000,4.0893168449401855,55.9575119018554700,55,98,99,77,81,15625,0,0,0,0,2147121078,2147769316,2147576402,2147566500,197,3,13,16877
1369721073,5812,983.2100219726562000,39.2151489257812500,572.6726074218750000,4.0924777984619140,55.7643394470214840,54,98,99,78,81,15604,0,0,0,0,2147120978,2147770450,2147573878,2147563072,442,2,13,6628
1369724673,5810,988.0900268554688000,37.3823204040527340,573.2199707031250000,4.0754528045654300,56.0418510437011700,53,97,99,77,81,15601,0,0,0,0,2147121197,2147773421,2147573696,2147568265,196,2,13,19992
1369728273,5811,988.5000000000000000,38.9508094787597660,572.7357788085938000,4.0905132293701170,55.8000602722168000,55,99,99,77,82,15598,0,0,0,0,2147120621,2147770624,2147574317,2147565257,64,2,13,38632
1369731873,5808,996.1699829101562000,36.1703414916992200,572.7163085937500000,4.0911178588867190,56.2269706726074200,55,98,100,77,81,15601,0,0,0,0,2147118125,2147765284,2147570048,2147567332,353,2,13,28797
1369735473,5808,991.2999877929688000,37.5237503051757800,572.9091796875000000,4.0851187705993650,56.0211105346679700,54,97,100,79,82,15600,0,0,0,0,2147119899,2147769243,2147572315,2147566774,3543,2,13,17548
1369739073,5811,992.2100219726562000,39.1917610168457000,572.7943725585938000,4.0886921882629395,55.7666702270507800,56,97,99,78,82,15603,0,0,0,0,2147122331,2147770340,2147566765,2147565074,3421,2,13,26924
1369742673,5811,994.9400024414062000,37.0459403991699200,571.8394165039062000,4.1183872222900390,56.0817298889160160,55,127,100,78,81,15597,0,0,0,0,2147123200,2147772013,2147570898,2147567451,342,2,13,15146
1369746273,5810,990.1099853515625000,34.9821891784668000,571.9503784179688000,4.1149368286132810,56.4095382690429700,55,98,99,77,82,15594,0,0,0,0,2147120228,2147774089,2147572946,2147565595,3007,2,13,31546
1369749873,5808,988.5999755859375000,37.7947082519531250,572.7084960937500000,4.0913619995117190,55.9806709289550800,54,98,100,79,81,15595,0,0,0,0,2147122166,2147771428,2147572251,2147565302,246,2,13,44909
1369753473,5809,993.3499755859375000,39.0103416442871100,573.1422119140625000,4.0778751373291020,55.7967910766601560,54,97,100,77,81,15598,0,0,0,0,2147118820,2147774500,2147570678,2147566939,3487,3,13,14350
1369757073,5806,989.7800292968750000,36.7641906738281250,572.8717041015625000,4.0862870216369630,56.1365699768066400,55,99,99,78,82,15594,0,0,0,0,2147119094,2147768228,2147572306,2147569024,197,2,13,45706
1369760673,5805,987.6500244140625000,36.1436195373535160,572.9437255859375000,4.0840492248535160,56.2344512939453100,55,100,99,77,81,15597,0,0,0,0,2147122925,2147770404,2147574089,2147567862,167,2,13,6250
1369764273,5807,988.2000122070312000,36.2391281127929700,573.5770263671875000,4.0643501281738280,56.2297286987304700,55,97,100,77,81,15598,0,0,0,0,2147121472,2147772306,2147570944,2147568000,231,2,13,42439
1369767873,5809,981.2000122070312000,40.0175590515136700,574.5645141601562000,4.0336279869079590,55.6593513488769500,54,98,100,77,82,15597,0,0,0,0,2147118317,2147774409,2147566848,2147567643,3437,2,13,42376
1369771257,5808,986.7000122070312000,38.7076797485351560,574.6190185546875000,4.0319328308105470,55.8614006042480500,54,98,100,78,82,15595,0,0,0,0,2147120192,2147767707,2147571940,2147569051,202,2,13,25213
